Location: Gad�tanya
(48.0500°N, 20.8500°E)
Time: 11:11:04
(UTC+00:00)

SL-16 R/B - Pass Details

Date: 05 July 2020
Orbit: 985 x 1007 km, 99.5° (Epoch: 14 August)

Event Time Altitude Azimuth Distance (km) Brightness Sun altitude
Exits shadow 23:31:34 12° 140° (SE) 2,638 4.4 -18.4°
Maximum altitude 23:37:13 53° 66° (ENE) 1,218 3.2 -18.2°
Drops below altitude 10° 23:43:17 10° 352° (N) 2,791 5.9 -17.9°
Sets 23:45:49 0° 348° (NNW) 3,746 6.7 -17.8°
